Regional Weather Roundup
Issued by NWS

Home | Current Version | Previous Version | Graphics & Text | Print | Product List | Glossary On
Versions: 1 2 3 4 5 6 7 8 9 10 11 12 13 14 15 16 17 18 19 20 21 22 23 24 25 26 27 28 29 30 31 32 33 34 35 36 37 38 39 40 41 42 43 44 45 46 47 48 49 50
000
ASUS45 KTFX 022019
RWRMT
MONTANA REGIONAL WEATHER ROUNDUP
NATIONAL WEATHER SERVICE GREAT FALLS MT
200 PM MDT WED SEP 02 2015

NOTE: "FAIR" INDICATES FEW OR NO CLOUDS BELOW 12000 FEET WITH NO
SIGNIFICANT WEATHER AND/OR OBSTRUCTIONS TO VISIBILITY.

MTZ001>007-043-022100-
WEST OF THE DIVIDE

CITY           SKY/WX    TMP DP  RH WIND       PRES   REMARKS
KALISPELL      CLOUDY    68  39  34 SW18G28   29.81R
MISSOULA       MOSUNNY   74  39  28 NW15      29.82F
BUTTE          PTSUNNY   80  28  15 W15G24    29.82F
MULLAN PASS    CLOUDY    45  39  79 SW9       29.95S
DEER LODGE       N/A     73  36  25 N5        29.84F
EUREKA           N/A     66  34  30 S16G23    29.80R
HAMILTON         N/A     73  39  29 NE5       29.78F
LIBBY            N/A     68  37  32 SE10G23   29.83F
PLAINS           N/A     68  43  40 SW14      29.88R
RONAN            N/A     68  42  38 W15       29.91R
THOMPSON FALLS   N/A     65  41  41 S13       29.92R
$$

MTZ008-052>055-022100-
SOUTHWEST MONTANA

CITY           SKY/WX    TMP DP  RH WIND       PRES   REMARKS
BOZEMAN        MOSUNNY   88  30  12 SW22G31   29.76F
DILLON           N/A    N/A N/A N/A MISG        N/A
W YELLOWSTONE  SUNNY     75  27  16 SW22G37   30.02F
THREE FORKS      N/A     88   0   3 SW12      29.75F
TWIN BRIDGES     N/A     82  36  19 S17       29.80F
$$

MTZ009-010-012-014-046-048-049-054-022100-
EAST SLOPES AND CENTRAL MONTANA

CITY           SKY/WX    TMP DP  RH WIND       PRES   REMARKS
CUT BANK       MOSUNNY   76  35  22 W29G39    29.73S
GREAT FALLS    CLOUDY    85  33  15 W25G33    29.71F
MALMSTROM AFB  CLOUDY    82  36  19 W13G18    29.71F
HELENA         PTSUNNY   83  39  21 VRB6      29.71F
CONRAD           N/A     83  35  17 S12       29.76S
$$

MTZ011-013-016-021-045-047-050-051-022100-
NORTH CENTRAL MONTANA

CITY           SKY/WX    TMP DP  RH WIND       PRES   REMARKS
HAVRE          CLOUDY    83  36  18 W13       29.66S
LEWISTOWN      PTSUNNY   89  33  13 SW18G24   29.75F
N BAR RANCH      N/A     82  37  20 SW8       29.80F
CHINOOK          N/A     84  37  18 W10       29.64S
FORT BENTON      N/A     82  36  18 SW3       29.69S
$$

MTZ017>020-022>027-061-062-022100-
NORTHEAST MONTANA

CITY           SKY/WX    TMP DP  RH WIND       PRES   REMARKS
GLASGOW        MOSUNNY   91  38  15 VRB6      29.64F
JORDAN           N/A     97  35  11 SW15      29.66F HX  92
SIDNEY         SUNNY     99  43  14 S10         N/A  HX  94
WOLF POINT     MOSUNNY   96  42  15 S6        29.64F HX  92
MALTA            N/A     83  49  30 CALM      29.64F
PLENTYWOOD       N/A     95  43  16 S14       29.67S HX  91
POPLAR           N/A     95  34  11 SW6       29.65F HX  90
SCOBEY           N/A     92  44  18 S3        29.68F
$$

MTZ028>42-056>058-022100-
SOUTHCENTRAL AND SOUTHEAST MONTANA

CITY           SKY/WX    TMP DP  RH WIND       PRES   REMARKS
BAKER          SUNNY     98  40  13 SE14G22   29.76F HX  93
BILLINGS       PTSUNNY   91  34  13 SW12      29.76S
LIVINGSTON     SUNNY     90  28  11 SW28G45   29.78F
MILES CITY     SUNNY     99  38  12 S5        29.67F HX  94
EKALAKA          N/A     95  36  12 SE5       29.80F HX  90
FORSYTH          N/A     97  37  12 NE6       29.67F HX  92
LAUREL           N/A     91  40  16 S5        29.77F
ROUNDUP          N/A     92  34  13 S7        29.66F
$$

REGIONAL REPORTS...DAKOTAS

CITY           SKY/WX    TMP DP  RH WIND       PRES   REMARKS
WILLISTON      SUNNY     97  52  21 SE18G24   29.68F HX  94
MINOT          SUNNY     92  60  34 SE13      29.71F HX  91
DICKINSON      MOSUNNY   93  45  19 S17G23    29.74F
BEACH            N/A     95  37  13 S9G18     29.74F HX  90
CROSBY           N/A     93  48  21 S23       29.68F HX  90
BISMARCK       SUNNY     88  68  51 SE8       29.75F HX  91
GRAND FORKS    SUNNY     88  66  48 S14G22    29.79F HX  90
FARGO          SUNNY     90  65  43 SE14G24   29.80F HX  92
BUFFALO SD       N/A     93  48  21 S10       29.73F
RAPID CITY     SUNNY     94  52  24 VRB3      29.80F HX  91
$$

REGIONAL REPORTS...WYOMING/IDAHO/WASHINGTON

CITY           SKY/WX    TMP DP  RH WIND       PRES   REMARKS
GILLETTE       SUNNY     92  35  13 SW14      29.87F
SHERIDAN       MOSUNNY   95  30  10 VRB3      29.80F
BUFFALO WY     MOSUNNY   93  30  10 SW15G22   29.91F
CODY           SUNNY     88  30  12 SW12G21   29.87F
YELLOWSTONE LA   N/A     72  32  23 VRB3G18   30.13F
IDAHO FALLS    MOSUNNY   85  35  16 SW17G25   29.93F
SALMON         MOSUNNY   81  39  22 N18       29.71F
BOISE          CLOUDY    82  36  19 CALM      29.84F
SPOKANE        PTSUNNY   67  39  35 SW23      29.85S
$$

REGIONAL REPORTS...ALBERTA

CITY           SKY/WX    TMP DP  RH WIND       PRES   REMARKS
EDMONTON       MOSUNNY   66  45  45 W8        29.57R
CALGARY        PTSUNNY   70  36  28 S8        29.59R
LETHBRIDGE     MOSUNNY   75  36  23 SW33G47   29.67R
MEDICINE HAT   CLOUDY    84  34  16 SW13      29.61F
WATERTON GATE    N/A     63  34  34 SW26G39     N/A
CARDSTON         N/A     70  34  26 SW18G30     N/A
MILK RIVER       N/A     77  36  22 SW25G35     N/A
ONEFOUR          N/A     81  28  15 W9G18       N/A
$$

REGIONAL REPORTS...SASKATCHEWAN

CITY           SKY/WX    TMP DP  RH WIND       PRES   REMARKS
SWIFT CURRENT  MOSUNNY   79  43  27 W15       29.63S
REGINA         PTSUNNY   90  57  33 SE26G33   29.60F
SASKATOON      CLOUDY    75  54  46 E6        29.61F
CYPRESS HILLS    N/A     75  30  19 SW10        N/A
VAL MARIE        N/A     77  39  25 S8          N/A
ROCKGLEN         N/A     86  39  19 SW14G20     N/A
ASSINIBOIA       N/A     73  43  33 W3          N/A
$$


USA.gov is the U.S. government's official web portal to all federal, state and local government web resources and services.